Tracking 35055 objects as of 18-Aug-2026
HD Live streaming from Space Station
objects crossing your sky now

ICEYE-X61

Track ICEYE-X61 now!
10-day predictions
ICEYE-X61 is classified as:


NORAD ID: 66754
Int'l Code: 2025-276CS
Launch date: November 28, 2025
Source: (FIN)
Launch site: AIR FORCE WESTERN TEST RANGE (AFWTR)

Uplink (MHz):
Downlink (MHz): 2240.000
Beacon (MHz):
Mode: FM
Call sign:
Status: Unknown

Your satellite tracking list
Your tracking list is empty




NASA's NSSDC Master Catalog

Two Line Element Set (TLE):
1 66754U 25276CS  26230.16358466  .00002527  00000-0  12446-3 0  9998
2 66754  97.4161 302.4970 0004877 111.0202 249.1555 15.18865349 39829
Source of the keplerian elements: AFSPC